Main page
Satellite images Climate Cyclones Lightning AirportsFAQ Languages Contact Newsletter About
Weather : Europe Africa North America South America Asia Australia-Oceania Others

4488, Yangon, Yangon International Airport

48097

latitude: , longitude: Burma, elevation: 16-46N m


METAR: VYYY 221030Z 04010KT 6000 BKN010 FEW016CB OVC080 26/25 Q1009